Bennington, VT

2:24 AM EDT on April 24, 2017 (GMT -0400)
Morse State

Weather History for KDDH - January, 2014

Change the Weather History Date:

Saturday, January 18, 2014

  Actual Average Record
Temperature  
Mean Temperature 30 °F 21 °F  
Max Temperature 39 °F 30 °F 44 °F (2015)
Min Temperature 21 °F 11 °F 11 °F (2016)
Degree Days  
Heating Degree Days 35 44  
Month to date heating degree days 736 788  
Since 1 July heating degree days 3399 3560  
Cooling Degree Days 0 0  
Month to date cooling degree days 0 0  
Year to date cooling degree days 0 0  
Moisture  
Dew Point 23 °F    
Average Humidity 76    
Maximum Humidity 92    
Minimum Humidity 59    
Precipitation  
Precipitation 0.06 in 0.09 in 1.27 in (2015)
Month to date precipitation 2.79 1.76  
Year to date precipitation 2.79 1.76  
Sea Level Pressure  
Sea Level Pressure 29.74 in    
Wind  
Wind Speed 3 mph (WSW)    
Max Wind Speed 12 mph    
Max Gust Speed 15 mph    
Visibility 5 miles    
Events Snow    
T = Trace of Precipitation, MM = Missing Value Source: NWS Daily Summary

Daily Weather History Graph

Daily Weather History Graph

Search for Another Location

Airport or City:

Trip Planner

Search our weather history database for the weather conditions in past years. The results will help you decide how hot, cold, wet, or windy it might be!

Date:

Astronomy

Jan. 18, 2014 Rise Set
Actual Time 7:19 AM EST 4:47 PM EST
Civil Twilight 6:48 AM EST 5:18 PM EST
Nautical Twilight 6:13 AM EST 5:53 PM EST
Astronomical Twilight 5:39 AM EST 6:27 PM EST
Moon 7:32 PM EST (1/18) 8:13 AM EST (1/18)
Length of Visible Light 10h 30m
Length of Day
9h 28m
Waning Gibbous, 94% of the Moon is Illuminated
Jan 18
Waning Gibbous
Jan 24
Last Quarter
Jan 30
New
Feb 6
First Quarter
Feb 14
Full

Hourly Weather History & Observations

Time (EST) Temp. Windchill Dew Point Humidity Pressure Visibility Wind Dir Wind Speed Gust Speed Precip Events Conditions
12:54 AM 24.1 °F - 19.9 °F 84% 29.88 in 8.0 mi Calm Calm - N/A   Clear
1:54 AM 21.9 °F - 19.0 °F 89% 29.87 in 7.0 mi Calm Calm - N/A   Clear
2:54 AM 21.9 °F - 19.0 °F 89% 29.86 in 6.0 mi Calm Calm - N/A   Clear
3:54 AM 21.9 °F - 19.0 °F 89% 29.84 in 6.0 mi Calm Calm - N/A   Clear
4:54 AM 27.0 °F - 21.9 °F 81% 29.82 in 10.0 mi Calm Calm - N/A   Clear
5:54 AM 24.1 °F - 21.9 °F 91% 29.82 in 7.0 mi Calm Calm - N/A   Clear
6:54 AM 26.1 °F - 21.0 °F 81% 29.78 in 8.0 mi Calm Calm - N/A   Clear
7:54 AM 27.0 °F - 21.0 °F 78% 29.75 in 9.0 mi Calm Calm - N/A   Mostly Cloudy
8:54 AM 28.9 °F - 23.0 °F 78% 29.76 in 10.0 mi Calm Calm - N/A   Overcast
9:54 AM 36.0 °F 33.3 °F 23.0 °F 59% 29.77 in 10.0 mi East 3.5 mph - N/A   Overcast
10:54 AM 37.0 °F 31.6 °F 26.1 °F 65% 29.73 in 10.0 mi Variable 6.9 mph - N/A   Clear
11:54 AM 39.0 °F 34.8 °F 26.1 °F 60% 29.68 in 10.0 mi ESE 5.8 mph - N/A   Scattered Clouds
12:54 PM 39.0 °F - 26.1 °F 60% 29.64 in 10.0 mi Calm Calm - N/A   Overcast
1:54 PM 37.0 °F 32.4 °F 25.0 °F 62% 29.63 in 10.0 mi WNW 5.8 mph - N/A   Overcast
2:54 PM 33.1 °F 24.9 °F 25.0 °F 72% 29.66 in 6.0 mi WSW 10.4 mph - N/A   Haze
3:04 PM 32.0 °F 24.2 °F 26.6 °F 80% 29.63 in 1.8 mi WSW 9.2 mph - 0.00 in Snow Light Snow
3:54 PM 30.9 °F 25.2 °F 27.0 °F 85% 29.68 in 1.0 mi SW 5.8 mph - 0.00 in Snow Light Snow
4:04 PM 30.2 °F 24.3 °F 28.4 °F 93% 29.66 in 0.8 mi SW 5.8 mph - 0.00 in Snow Light Snow
4:17 PM 30.2 °F - 26.6 °F 86% 29.66 in 0.8 mi Calm Calm - 0.00 in Snow Light Snow
4:54 PM 30.0 °F 25.2 °F 27.0 °F 88% 29.70 in 1.0 mi Variable 4.6 mph - 0.02 in Snow Light Snow
5:02 PM 30.2 °F 22.6 °F 26.6 °F 86% 29.68 in 0.8 mi WSW 8.1 mph - 0.00 in Snow Light Snow
5:15 PM 28.4 °F 20.4 °F 26.6 °F 93% 29.68 in 1.0 mi WSW 8.1 mph - 0.01 in Snow Light Snow
5:54 PM 28.0 °F 21.7 °F 24.1 °F 85% 29.73 in 1.5 mi Variable 5.8 mph - 0.01 in Snow Light Snow
6:25 PM 26.6 °F 20.0 °F 23.0 °F 86% 29.71 in 1.2 mi Variable 5.8 mph - 0.01 in Snow Light Snow
6:54 PM 26.1 °F 19.4 °F 21.9 °F 84% 29.75 in 2.0 mi WSW 5.8 mph - 0.01 in Snow Light Snow
7:01 PM 26.6 °F 19.1 °F 21.2 °F 80% 29.72 in 1.8 mi SW 6.9 mph - 0.00 in Snow Light Snow
7:17 PM 26.6 °F - 21.2 °F 80% 29.72 in 2.0 mi Calm Calm - 0.01 in Snow Light Snow
7:54 PM 26.1 °F 20.5 °F 21.0 °F 81% 29.76 in 2.0 mi SW 4.6 mph - 0.01 in Snow Light Snow
8:04 PM 26.6 °F - 21.2 °F 80% 29.73 in 1.5 mi Calm Calm - 0.00 in Snow Light Snow
8:16 PM 24.8 °F 17.9 °F 21.2 °F 86% 29.72 in 1.8 mi WSW 5.8 mph - 0.01 in Snow Light Snow
8:40 PM 24.8 °F 20.5 °F 19.4 °F 80% 29.72 in 2.5 mi WSW 3.5 mph - 0.01 in Snow Light Snow
8:54 PM 25.0 °F 20.7 °F 19.9 °F 81% 29.75 in 3.0 mi WSW 3.5 mph - 0.01 in Snow Light Snow
9:45 PM 24.8 °F 19.1 °F 19.4 °F 80% 29.74 in 8.0 mi WSW 4.6 mph - 0.00 in   Overcast
9:54 PM 25.0 °F 19.3 °F 19.9 °F 81% 29.77 in 9.0 mi WSW 4.6 mph - 0.00 in   Overcast
10:18 PM 24.8 °F 20.5 °F 19.4 °F 80% 29.75 in 10.0 mi West 3.5 mph - N/A   Overcast
10:54 PM 24.1 °F 19.7 °F 18.0 °F 77% 29.77 in 10.0 mi SW 3.5 mph - N/A   Overcast
11:54 PM 24.1 °F 18.2 °F 18.0 °F 77% 29.76 in 10.0 mi Variable 4.6 mph - N/A   Overcast